Location: Llanycrwys
(52.0833°N, 3.9833°W)
Time: 06:59:22
(UTC+00:00)

Daily predictions for brighter satellites

Satellite Brightness Start Highest point End
(mag) Time Altitude Azimuth Time Altitude Azimuth Time Altitude Azimuth
ATLAS 3B R/B 3.8 18:43:25 10° NW 18:49:24 33° NNE 18:55:34 10° ENE
H-2A R/B 2.1 18:46:18 10° SSE 18:51:11 59° ENE 18:56:13 10° N
SJ-11-01 4.4 18:47:06 10° SSE 18:51:45 62° ENE 18:56:25 10° N
CZ-4 R/B 1.9 18:48:08 10° S 18:52:21 71° WSW 18:56:33 10° NNW
Cosmos 2297 Rocket 4.0 18:48:34 10° WSW 18:53:37 32° NW 18:58:42 10° NNE
ISS -1.7 18:52:13 10° S 18:53:54 13° SE 18:55:35 10° ESE
USA 238 DEB 4.1 18:47:22 10° NW 18:54:24 61° NE 19:01:45 10° ESE
USA 238 4.1 18:47:28 10° NW 18:54:30 60° NE 19:01:51 10° ESE
Cosmos 1842 3.3 18:50:51 10° N 18:54:45 88° WSW 18:58:37 10° S
NOSS 3-1 (C) 4.4 18:51:37 10° WSW 18:57:14 49° NNW 19:03:55 10° NE
Cosmos 1025 Rocket 3.6 18:59:50 10° N 19:03:55 37° ENE 19:08:00 10° SE
CZ-2C R/B 3.7 19:00:09 10° NE 19:04:41 25° E 19:09:14 10° SE
ARGOS 3.2 18:59:29 10° SSE 19:04:45 61° ENE 19:10:04 10° N
Cosmos 990 Rocket 4.0 19:01:21 10° SSW 19:06:29 84° ESE 19:11:40 10° NNE
Cosmos 1782 Rocket 3.5 19:02:54 10° S 19:07:18 71° E 19:11:45 10° NNE
Cosmos 1707 2.9 19:03:32 10° N 19:07:18 50° ENE 19:11:02 10° SSE
Cosmos 1908 Rocket 4.0 19:05:03 10° SSW 19:09:23 67° WNW 19:13:47 10° N
Cosmos 1743 4.2 19:05:52 10° SW 19:09:31 41° WNW 19:13:10 10° N
NOSS 8 (F) 4.0 19:06:59 10° SW 19:10:08 84° SE 19:13:11 10° NE
Meteor 2-11 Rocket 4.5 19:04:41 10° S 19:10:50 83° E 19:17:02 10° NNE
Cosmos 2233 Rocket 4.2 19:09:12 10° SSW 19:15:26 79° W 19:21:39 10° N
CREW DRAGON DEMO-1 DEB 2.7 19:12:29 10° W 19:15:31 85° S 19:18:00 14° E
USA 186 2.3 19:13:40 10° SE 19:16:38 40° ENE 19:19:43 10° N
Ariane Rocket 3.2 19:14:48 10° SE 19:19:42 52° ENE 19:24:39 10° N
SJ-6B 3.3 19:16:32 10° SE 19:19:58 36° ENE 19:23:28 10° N
CZ-2C R/B 3.6 19:15:30 10° S 19:20:46 68° WSW 19:26:22 10° NNW
Nadezhda 4 Rocket 4.2 19:15:27 10° N 19:21:24 49° ENE 19:27:18 10° SSE
FREGAT/IRIS 3.3 19:20:39 16° ESE 19:22:08 27° ENE 19:24:25 10° N
NOSS 3-2 (A) 4.0 19:14:52 10° NW 19:22:09 80° NE 19:30:19 11° SE
Cosmos 2263 Rocket 2.2 19:17:01 10° SSW 19:22:36 87° ESE 19:28:15 10° NNE
NOSS 2-2 (C) 3.7 19:21:35 10° SSW 19:24:50 35° SE 19:28:28 10° ENE
HJ-1C 4.0 19:22:57 10° S 19:26:12 58° W 19:29:29 10° NNW
Lacrosse 4 Rocket 3.7 19:25:44 10° N 19:27:25 12° NNE 19:29:07 10° NE
Cosmos 1975 Rocket 3.7 19:23:30 10° NNW 19:27:47 59° W 19:32:01 10° S
Meteor 2-9 Rocket 4.5 19:22:12 10° SSW 19:28:04 81° WNW 19:33:52 10° NNE
MOS 1 4.4 19:22:53 10° SE 19:28:27 57° ENE 19:34:03 10° N
Cosmos 1844 Rocket 3.5 19:25:07 10° SSE 19:29:42 27° ESE 19:34:19 10° NE
Cosmos 2034 Rocket 4.3 19:24:14 10° SSE 19:30:13 45° E 19:36:11 10° NNE
ATLAS CENTAUR R/B 3.6 19:31:18 10° WNW 19:34:08 19° NNW 19:36:54 10° NNE
Cosmos 2227 4.5 19:30:21 10° SW 19:36:05 75° WNW 19:41:50 10° NNE
SPOT 3 Rocket 4.2 19:32:57 15° SE 19:36:45 37° ENE 19:41:28 10° N
Cosmos 1898 Rocket 4.0 19:31:58 10° SW 19:37:06 65° WNW 19:42:17 10° NNE
Cosmos 1867 4.4 19:37:38 10° NW 19:42:55 50° WSW 19:48:10 10° SSE
USA 234 4.1 19:38:13 10° ENE 19:43:32 26° SE 19:48:49 10° S
Resurs 01 Rocket 2.6 19:42:54 20° ESE 19:44:58 30° ENE 19:48:52 10° N
Lacrosse 5 rocket 2.2 19:41:08 10° W 19:45:21 50° NNW 19:49:28 12° ENE
Cosmos 1833 Rocket 3.9 19:43:34 10° NNW 19:48:22 27° NE 19:51:25 18° E
MetOp-A 4.1 19:43:23 10° SSE 19:48:41 70° ENE 19:54:02 10° NNW
Sich 1 Rocket 3.9 19:45:44 10° SSW 19:50:13 74° WNW 19:54:48 10° N
Cosmos 372 Rocket 3.9 19:46:00 10° SSW 19:51:13 69° ESE 19:56:25 10° NNE
MOS 1 Rocket 3.3 19:47:36 10° NNE 19:52:09 79° WNW 19:56:29 10° SSW
OBJECT-B 1.1 19:52:33 31° SE 19:53:41 46° ENE 19:56:50 10° N
Meteor 1-15 Rocket 4.5 19:49:12 10° SSE 19:54:31 46° E 19:59:58 10° NNE
IRS-1A Rocket 4.4 19:48:49 10° SSE 19:54:44 87° WSW 20:00:38 10° NNW
Cosmos 1626 3.2 19:52:28 10° N 19:55:39 26° ENE 19:56:03 26° E
NOSS 3-2 (C) 4.0 19:49:40 10° NW 19:56:59 82° NE 20:03:03 20° SE
SJ 16-02 3.9 19:54:49 10° WSW 19:58:23 24° NW 20:01:59 10° N
DMSP B5D2-2 4.2 19:53:29 10° NNE 19:58:41 53° E 20:03:51 10° S
Meteor 1-12 Rocket 4.3 19:53:28 10° S 19:59:23 87° E 20:05:13 10° NNE
Cosmos 2150 Rocket 4.1 19:56:29 10° S 20:01:44 56° ESE 20:07:05 10° NNE
ARIANE 5 R/B 3.7 20:01:02 24° E 20:02:00 27° ENE 20:05:38 10° N
Abrixas rocket 2.5 20:00:10 10° WSW 20:02:52 38° S 20:03:00 38° S
BREEZE-M TANK 3.8 19:55:26 10° SW 20:03:09 33° S 20:04:37 26° SE
Cosmos 1937 Rocket 4.3 20:00:04 10° SW 20:05:12 53° WNW 20:10:19 10° NNE
Okean 2 Rocket 3.3 20:04:10 10° SSW 20:08:39 74° W 20:13:10 10° N
Cosmos 1125 Rocket 3.8 20:04:35 10° S 20:09:37 45° ESE 20:14:41 10° NE
Cosmos 2285 Rocket 4.3 20:03:47 10° S 20:09:40 43° ESE 20:15:37 10° NE
Okean 1 Rocket 3.4 20:08:19 26° SSE 20:10:21 44° E 20:14:38 10° NNE
SL-08 RB Rocket 4.5 20:06:38 10° S 20:11:06 52° W 20:15:35 10° NNW
Cosmos 1300 Rocket 4.0 20:12:37 10° SSW 20:16:59 63° WNW 20:21:25 10° N
Cosmos 1464 Rocket 4.3 20:11:39 10° SSW 20:17:45 70° WNW 20:23:57 10° N
ERS-1 Rocket 4.3 20:17:26 21° ENE 20:18:15 22° ENE 20:22:03 10° N
Cosmos 1092 Rocket 3.9 20:14:50 10° N 20:21:02 80° E 20:25:37 19° SSE
Resurs 1-3 3.5 20:18:56 28° SSE 20:21:12 86° ENE 20:25:38 10° NNW
Meteor 2-13 Rocket 4.4 20:15:10 10° N 20:21:23 84° ENE 20:26:06 18° SSE
NOSS 2-2 (E) 3.6 20:18:14 10° WSW 20:21:49 66° NW 20:26:07 10° NE
Meteor 2-5 Rocket 3.7 20:16:34 10° N 20:22:12 74° ENE 20:25:27 27° SSE
Cosmos 2195 Rocket 4.4 20:16:56 10° N 20:23:16 75° E 20:27:20 23° SSE
Cosmos 1805 3.2 20:24:12 49° SE 20:24:58 61° E 20:28:50 10° NNE
Cosmos 1674 2.9 20:21:14 10° NNW 20:25:05 69° W 20:27:00 28° S
Cosmos 2026 Rocket 4.0 20:20:52 10° N 20:27:13 70° ENE 20:30:53 27° SSE
ATLAS 2AS CENTAUR R/B 3.6 20:20:48 10° S 20:27:38 33° ESE 20:34:25 10° NE
ISS -2.7 20:26:52 10° SW 20:29:08 34° SSW 20:29:08 34° SSW
NOSS 2-2 (D) 3.5 20:26:57 10° SW 20:30:29 68° NW 20:34:42 10° NE
Cosmos 2082 Rocket 3.3 20:25:36 10° NNW 20:30:35 31° NE 20:32:16 26° ENE
H-2A R/B 4.2 20:27:04 10° SW 20:31:02 23° W 20:35:05 10° NW
BREEZE-M DEB (TANK) 4.4 20:29:20 10° SW 20:33:26 58° SE 20:49:32 10° ENE
CENTAUR R/B 3.2 20:26:04 10° NW 20:33:59 77° SW 20:39:10 28° SSE
Cosmos 1733 3.6 20:36:18 48° NE 20:36:18 48° NE 20:39:24 10° NNE
Meteor 1-22 Rocket 4.5 20:34:26 34° SSE 20:36:43 52° E 20:42:34 10° NNE
Cosmos 1892 Rocket 3.7 20:33:18 10° N 20:37:33 50° ENE 20:37:39 50° E
CZ-2C R/B 3.6 20:33:55 10° NNE 20:38:21 60° ESE 20:38:59 54° SE
Cosmos 1428 Rocket 4.4 20:32:37 10° N 20:38:57 79° E 20:42:07 31° SSE
ATLAS 3B R/B 2.9 20:34:35 10° NW 20:41:20 62° NE 20:44:10 36° ESE
COSMOS 2406 3.3 20:35:56 10° NNW 20:41:36 63° NE 20:43:10 45° ESE
SL-14 R/B 3.1 20:39:21 10° N 20:43:14 73° ENE 20:43:14 73° ENE
SPOT 1/Viking Rocket 3.9 20:43:21 44° E 20:44:05 47° ENE 20:49:01 10° N
Meteor 1-24 Rocket 3.6 20:39:28 10° NNW 20:45:00 84° E 20:47:08 40° SSE
USA 238 DEB 4.5 20:38:30 10° NW 20:45:23 50° WSW 20:49:57 22° S
CZ-2C R/B 3.1 20:39:56 10° N 20:45:23 64° WNW 20:50:55 10° SSW
USA 238 4.5 20:38:36 10° NW 20:45:30 50° WSW 20:50:02 23° S
Cosmos 2279 Rocket 4.2 20:44:35 42° ESE 20:45:46 47° E 20:51:43 10° NNE
Cosmos 1269 Rocket 3.9 20:41:04 10° NNW 20:46:25 90° WSW 20:48:00 47° SSE
Spot 2 Rocket 3.5 20:51:06 54° E 20:51:43 59° ENE 20:56:40 10° N
Exosat Rocket 3.4 20:50:11 10° SSW 20:55:37 86° ESE 21:00:38 10° NNE
Cosmos 1766 3.4 20:58:56 72° W 20:59:03 72° WNW 21:03:00 10° N
Terra 3.0 21:02:36 29° NE 21:02:36 29° NE 21:06:08 10° N
MetOp-B 4.0 21:01:41 54° SSE 21:03:00 87° WSW 21:08:24 10° NNW
Cosmos 2278 Rocket 4.1 21:07:57 16° NE 21:07:57 16° NE 21:09:09 10° NE
Cosmos 1844 3.6 20:58:55 10° SSW 21:04:38 85° WNW 21:10:19 10° NNE
Lacrosse 4 Rocket 2.5 21:03:25 10° NNW 21:06:37 35° NNE 21:06:37 35° NNE
Cosmos 2263 Rocket 4.3 21:02:40 10° W 21:07:16 25° NW 21:11:54 10° NNE
Cosmos 909 Rocket 4.3 21:01:20 10° NW 21:08:02 59° NE 21:09:31 48° E
Okean 1-7 Rocket 3.7 21:04:03 10° N 21:08:18 71° NE 21:08:18 71° NE
Cosmos 1844 Rocket 3.0 21:07:40 10° SW 21:13:12 64° NW 21:18:47 10° NNE
ATLAS CENTAUR R/B 3.9 21:12:48 10° NNW 21:14:22 12° N 21:15:54 10° NNE
IGS 5A 3.9 21:20:34 60° NW 21:20:34 60° NW 21:24:07 10° NNW
Cosmos 2251 Rocket 3.7 21:14:38 10° NNW 21:19:53 57° NE 21:19:53 57° NE
Resurs 01 Rocket 2.7 21:20:28 36° SW 21:21:22 40° W 21:25:34 10° NNW
Cosmos 1340 Rocket 4.1 21:24:25 34° N 21:24:25 34° N 21:26:49 10° N
Lacrosse 5 rocket 2.3 21:20:50 10° WNW 21:25:05 47° N 21:25:05 47° N
OBJECT-B 3.6 21:25:45 13° WSW 21:26:19 14° W 21:28:07 10° NW
USA 234 3.1 21:24:44 39° ENE 21:27:20 70° SSE 21:33:52 10° SW
SPOT 5 3.2 21:28:43 61° NE 21:28:43 61° NE 21:33:33 10° N
Cosmos 2266 Rocket 3.8 21:23:25 10° N 21:29:29 67° ENE 21:29:34 67° E
Cosmos 1626 3.9 21:27:39 10° NNW 21:30:36 29° W 21:30:36 29° W
Cosmos 1833 Rocket 2.6 21:27:16 10° NNW 21:32:57 81° WSW 21:33:07 80° SW
Cosmos 1455 Rocket 4.3 21:39:31 37° N 21:39:31 37° N 21:42:12 10° N
ARIANE 5 R/B 3.6 21:38:36 43° W 21:38:36 43° W 21:42:27 10° NNW
Cosmos 1655 Rocket 3.9 21:34:43 10° NNW 21:41:01 84° W 21:41:39 73° SSW
Cosmos 1461 4.5 21:45:03 10° NW 21:48:46 34° NNE 21:48:46 34° NNE
NOSS 3-4 (A) 4.2 21:57:18 40° NE 21:57:18 40° NE 22:01:21 10° NE
NOSS 3-4 (C) 4.3 21:57:30 39° NE 21:57:30 39° NE 22:01:28 10° NE
ERS-1 Rocket 3.4 21:57:27 58° NW 21:57:27 58° NW 22:01:38 10° NNW
Cosmos 2098 Rocket 4.4 22:02:37 10° NNW 22:09:41 58° W 22:10:27 55° WSW
Cosmos 2082 Rocket 2.7 22:09:32 10° NW 22:14:06 55° WNW 22:14:06 55° WNW
ATLAS 2AS CENTAUR R/B 3.0 22:10:03 10° SW 22:18:03 85° NW 22:25:56 10° NE
ATLAS 3B R/B 3.4 22:25:29 10° NW 22:31:24 44° WSW 22:31:24 44° WSW
Terra 3.5 22:41:29 30° NW 22:41:29 30° NW 22:44:13 10° NNW
Lacrosse 4 Rocket 4.2 22:42:11 10° NW 22:42:54 14° NW 22:42:54 14° NW
Cosmos 2278 Rocket 3.3 22:49:46 41° N 22:49:46 41° N 22:53:40 10° NNE
ATLAS CENTAUR R/B 4.5 22:51:51 10° NNW 22:52:06 11° NNW 22:52:06 11° NNW
Lacrosse 5 rocket 4.3 23:00:07 10° WNW 23:00:42 14° WNW 23:00:42 14° WNW
USA 234 3.9 23:03:54 10° ENE 23:12:14 47° WNW 23:16:51 10° W
CZ-4C R/B 4.0 23:34:17 26° NE 23:34:17 26° NE 23:37:03 10° NE
USA 229 DEB 4.3 23:33:54 10° NW 23:40:43 56° NNE 23:40:43 56° NNE
USA 229 4.3 23:34:00 10° NW 23:40:49 56° NNE 23:40:49 56° NNE
